sat.trackr.live / text

‹ back to catalog

STARLINK-4169

NORAD 53280 · 2022-086AQ

PAYLOAD ACTIVE UNKNOWN

§ Identity

Operator
Country
US
Launch date
2022-07-24
Launch site
AFETR
Launch vehicle
Mass (kg)
RCS (m²)

Purposes: comms

External: N2YO · Heavens-Above · Gunter

§ Orbital elements

Epoch: 2026-09-19T04:36:54.986112Z

Period
93.11 min
Inclination
53.1629°
Eccentricity
0.0001527
Mean motion
15.46517838 rev/d
Perigee alt
425.9 km
Apogee alt
428.0 km
Semi-major
6,805.1 km
B*
1.8211e-4
RAAN
337.1705°
Arg perigee
72.3808°
Mean anomaly
287.7367°
Rev number
23,122

§ Raw data

STARLINK-41691 53280U 22086AQ  26262.19230308  .00008766  00000+0  18211-3 0  99922 53280  53.1629 337.1705 0001527  72.3808 287.7367 15.46517838231223

JSON: /api/v1/satellites/53280 · /tle

For live sub-satellite position, see the globe view (requires WebGL).

§ Visibility from observer

Set your observer location to see the next 7 days of passes ≥ 10°. The values pass through the URL so the page stays shareable.

No JS? Fill the form by hand. The geolocation button needs JavaScript.